Meteopurmerend
purmerend
Purmerend - Baaienwijk



My webcam  My webcam


waarschuwing voor Onweer Meer informatie blitzortung!


Regen radar Meer informatie rain snow radar


Bezoek onze andere website:

CandyAppleRed WebdesignWebdesign Purmerend Candy Apple Red

MeteopurmerendBlog

Template documentation
and downloads



Onweer van: 19-06-2019 18:00 tot: 23:00 waarschuwing voor: Onweer niveau: Geel info button
Enkele onweersbuien, mogelijk met hagel en windstoten tot ca. 75 km/uur.Verkeer en buitenactiviteiten kunnen hinder ondervinden.Mijd open water en open gebied, schuil niet onder bomen.Volg weerberichten en waarschuwingen.

15 daagse weersverwachting Wels (AT)

  • Overzicht
  • Per uur
  • 15 dagen
  • Extra
  • Vergelijk
  • Kaarten
  • Dagkaart
  • Meer »
  • Info
  • Statistieken
  • Directe link
    Temp 6h Neerslag Wind  
 05:05     21:07    Daglengte: 16:02 Vandaag
20:00
26°
 
1
 05:05     21:07    Daglengte: 16:02 Morgen
02:00
18°
 
1
08:00
20°
 
0
14:00
29°
 
2
20:00
23°
1.9 mm
3
 05:05     21:07    Daglengte: 16:02 Vrijdag 21 Jun
02:00
18°
5.4 mm
3
08:00
19°
3.7 mm
2
14:00
24°
2.5 mm
3
warningclass
20:00
22°
2.0 mm
2
 05:05     21:08    Daglengte: 16:03 Zaterdag 22 Jun
02:00
18°
4.1 mm
2
08:00
17°
8.9 mm
2
14:00
22°
7.8 mm
4
warningclass
Locatie info
Region: Oberösterreich
Latitude: 48.1568°N
Longitude: 14.0221°E
317 masl
Postcode: 4600
Temp/Neerslag /Baro Onweer/Dauwpunt
    Temp Baro 1h Neerslag Dauwpunt Wind UV Bewolking  
 05:05     21:07    Daglengte: 16:02 Vandaag
20:00
26°
1010.1 hPa
14%
17.1°
1
Windvlaag: -1.3 m/s
36%
21:00
24°
1010.4 hPa
13%
16.9°
1
Windvlaag: -0.9 m/s
44%
22:00
22°
1010.8 hPa
13%
17.0°
1
Windvlaag: -0.2 m/s
25%
23:00
21°
1011.0 hPa
13%
16.1°
1
Windvlaag: -0 m/s
13%
 05:05     21:07    Daglengte: 16:02 Morgen
00:00
19°
1010.9 hPa
13%
16.0°
1
Windvlaag: -0 m/s
7%
01:00
19°
1011.0 hPa
13%
15.6°
1
Windvlaag: 0 m/s
7%
02:00
18°
1010.9 hPa
13%
15.1°
1
Windvlaag: -0 m/s
5%
03:00
17°
1011.0 hPa
13%
14.7°
1
Windvlaag: 0 m/s
10%
04:00
16°
1011.2 hPa
13%
14.4°
1
Windvlaag: 0.2 m/s
8%
05:00
16°
1011.5 hPa
13%
14.0°
1
Windvlaag: 0.2 m/s
3%
06:00
16°
1011.8 hPa
13%
13.9°
1
Windvlaag: 0.3 m/s
1%
07:00
18°
1011.9 hPa
13%
14.4°
1
Windvlaag: 0.4 m/s
2%
08:00
20°
1011.9 hPa
13%
14.5°
0
Windvlaag: 0.4 m/s
2%
09:00
23°
1012.0 hPa
13%
14.7°
0
Windvlaag: 0.4 m/s
6%
10:00
25°
1011.7 hPa
13%
14.8°
1
Windvlaag: 0.7 m/s
15%
11:00
27°
1011.6 hPa
13%
14.8°
2
Windvlaag: 1 m/s
34%
12:00
27°
1011.4 hPa
20%
16.4°
3
Windvlaag: 0.7 m/s
38%
13:00
28°
1011.1 hPa
36%
16.9°
2
Windvlaag: 0.6 m/s
21%
14:00
29°
1010.7 hPa
80%
16.1°
2
Windvlaag: 0.8 m/s
8%
15:00
29°
Voelt als: 28.7°
1010.1 hPa
80%
15.3°
2
Windvlaag: 1.1 m/s
14%
16:00
28°
Voelt als: 28.3°
1010.1 hPa
80%
15.1°
2
Windvlaag: 1 m/s
23%
17:00
28°
1010.3 hPa
80%
15.6°
2
Windvlaag: -2.1 m/s
63%
18:00
25°
1010.8 hPa 0.6 mm
82%
15.4°
3
Windvlaag: -1 m/s
68%
19:00
24°
1011.6 hPa 0.7 mm
82%
14.8°
3
Windvlaag: 0.5 m/s
79%
20:00
23°
1012.4 hPa 0.6 mm
82%
16.8°
3
Windvlaag: 0.8 m/s
78%
21:00
21°
1013.1 hPa 0.5 mm
74%
17.7°
3
Windvlaag: 0.4 m/s
74%
22:00
20°
1014.0 hPa 0.6 mm
27%
17.8°
3
Windvlaag: 1.3 m/s
76%
23:00
19°
1014.4 hPa 1.7 mm
78%
17.4°
3
Windvlaag: 1.3 m/s
68%
 05:05     21:07    Daglengte: 16:02 Vrijdag 21 Jun
00:00
19°
1014.6 hPa 1.3 mm
81%
17.2°
3
Windvlaag: 0.1 m/s
54%
01:00
18°
1014.8 hPa 0.7 mm
82%
17.0°
3
Windvlaag: -0 m/s
55% warningclass
02:00
18°
1014.8 hPa 0.7 mm
81%
16.7°
3
Windvlaag: 1.1 m/s
44%
03:00
18°
1015.1 hPa 0.9 mm
81%
16.4°
2
Windvlaag: 1 m/s
34%
04:00
17°
1015.2 hPa 0.9 mm
75%
16.1°
2
Windvlaag: 0.6 m/s
51%
05:00
17°
1015.4 hPa 1.0 mm
26%
16.0°
2
Windvlaag: 0.5 m/s
45%
06:00
17°
1015.6 hPa
26%
15.9°
2
Windvlaag: 0.7 m/s
32%
07:00
18°
1016.0 hPa
14%
16.2°
2
Windvlaag: 1.1 m/s
20%
08:00
19°
1016.3 hPa 0.9 mm
80%
16.4°
2
Windvlaag: 1.1 m/s
29%
09:00
20°
1016.5 hPa 1.7 mm
82%
16.1°
3
Windvlaag: 1 m/s
47%
10:00
21°
1016.7 hPa 0.8 mm
78%
15.7°
3
Windvlaag: 0.8 m/s
66%
11:00
22°
1016.8 hPa
39%
15.3°
3
Windvlaag: 0.9 m/s
68%
12:00
23°
1016.7 hPa
68%
15.1°
3
Windvlaag: 0.6 m/s
58%
13:00
24°
1016.0 hPa
29%
15.2°
3
Windvlaag: 0 m/s
55%
14:00
24°
1015.5 hPa
69%
15.0°
3
Windvlaag: -0.5 m/s
60%
15:00
25°
1015.2 hPa
75%
14.6°
3
Windvlaag: -0.5 m/s
73%
16:00
24°
1015.0 hPa
80%
14.4°
3
Windvlaag: 1.1 m/s
82%
17:00
23°
1015.3 hPa 0.7 mm
98%
12.9°
4
Windvlaag: 0.9 m/s
95%
18:00
23°
1015.2 hPa
99%
13.4°
3
Windvlaag: -0.2 m/s
83%
19:00
23°
1015.5 hPa
45%
14.6°
3
Windvlaag: -0.2 m/s
69%
20:00
22°
1016.1 hPa 1.3 mm
92%
14.8°
2
Windvlaag: -0.4 m/s
64%
21:00
21°
1016.8 hPa
94%
15.3°
1
Windvlaag: -0.3 m/s
71%
22:00
20°
1017.7 hPa 0.7 mm
89%
16.1°
2
Windvlaag: 0.2 m/s
77%
23:00
19°
1017.9 hPa 0.8 mm
96%
16.6°
2
Windvlaag: 0.3 m/s
82%
 05:05     21:08    Daglengte: 16:03 Zaterdag 22 Jun
00:00
19°
1018.1 hPa 0.8 mm
99%
16.4°
2
Windvlaag: -0.2 m/s
90%
01:00
18°
1018.2 hPa 1.0 mm
91%
16.5°
2
Windvlaag: -0.4 m/s
77%
02:00
18°
1018.2 hPa 0.9 mm
92%
16.6°
2
Windvlaag: -0.2 m/s
89%
03:00
17°
1018.2 hPa 1.0 mm
97%
16.2°
2
Windvlaag: -0.2 m/s
90%
04:00
17°
1018.2 hPa 2.4 mm
100%
16.0°
1
Windvlaag: -0.1 m/s
94% warningclass
05:00
17°
1018.3 hPa 1.8 mm
100%
16.0°
1
Windvlaag: -0.4 m/s
94%
06:00
17°
1018.4 hPa 1.9 mm
100%
16.0°
1
Windvlaag: -0.6 m/s
95%
07:00
17°
1018.5 hPa 0.9 mm
100%
15.9°
1
Windvlaag: -0.8 m/s
94%
08:00
17°
1018.6 hPa 0.9 mm
100%
15.9°
2
Windvlaag: -0.8 m/s
91%
09:00
19°
1018.3 hPa 1.0 mm
100%
16.4°
2
Windvlaag: -1.2 m/s
96%
10:00
19°
1017.9 hPa 1.4 mm
100%
16.4°
2
Windvlaag: -0 m/s
91%
11:00
20°
1017.5 hPa 1.2 mm
99%
16.4°
3
Windvlaag: 0.3 m/s
87%
12:00
20°
1017.2 hPa 1.9 mm
100%
16.5°
3
Windvlaag: -0.5 m/s
87% warningclass
13:00
21°
1016.7 hPa 1.3 mm
99%
16.6°
4
Windvlaag: -2.4 m/s
89% warningclass
14:00
22°
1016.3 hPa 1.1 mm
100%
16.4°
4
Windvlaag: -1.5 m/s
93% warningclass
15:00
22°
1015.8 hPa 1.8 mm
100%
17.3°
4
Windvlaag: 2.6 m/s
87% warningclass
16:00
21°
1015.6 hPa 1.7 mm
100%
17.7°
4
Windvlaag: 2.2 m/s
89% warningclass
17:00
21°
1015.4 hPa 1.9 mm
100%
17.8°
4
Windvlaag: 3.7 m/s
77% warningclass
18:00
20°
1015.2 hPa 2.1 mm
100%
17.9°
3
Windvlaag: 3.3 m/s
80%
19:00
20°
1015.2 hPa 1.7 mm
99%
18.1°
3
Windvlaag: 0.8 m/s
88%
Temp/Neerslag /Baro Onweer/Dauwpunt
    Temp Baro Neerslag Dauwpunt Wind Bewolking  
 05:05     21:07    Daglengte: 16:02 Vandaag
20:00
26°
1010.1 hPa   17.1°
1
36%
23:00
21°
1011.0 hPa   16.1°
1
13%
 05:05     21:07    Daglengte: 16:02 Morgen
02:00
18°
1010.9 hPa   15.1°
1
5%
05:00
16°
1011.5 hPa   14.0°
1
3%
08:00
20°
1011.9 hPa   14.5°
0
2%
11:00
27°
1011.6 hPa   14.8°
2
34%
14:00
29°
1010.7 hPa   16.1°
2
8%
17:00
28°
1010.3 hPa   15.6°
2
63%
20:00
23°
1012.4 hPa 1.9 mm 16.8°
3
78%
23:00
19°
1014.4 hPa 2.8 mm 17.4°
3
68%
 05:05     21:07    Daglengte: 16:02 Vrijdag 21 Jun
02:00
18°
1014.8 hPa 2.6 mm 16.7°
3
44%
05:00
17°
1015.4 hPa 2.8 mm 16.0°
2
45%
08:00
19°
1016.3 hPa 0.9 mm 16.4°
2
29%
11:00
22°
1016.8 hPa 2.5 mm 15.3°
3
68%
14:00
24°
1015.5 hPa   15.0°
3
60%
17:00
23°
1015.3 hPa 0.7 mm 12.9°
4
95%
20:00
22°
1016.1 hPa 1.3 mm 14.8°
2
64%
23:00
19°
1017.9 hPa 1.4 mm 16.6°
2
82%
 05:05     21:08    Daglengte: 16:03 Zaterdag 22 Jun
02:00
18°
1018.2 hPa 2.7 mm 16.6°
2
89%
05:00
17°
1018.3 hPa 5.2 mm 16.0°
1
94%
08:00
17°
1018.6 hPa 3.7 mm 15.9°
2
91%
11:00
20°
1017.5 hPa 3.6 mm 16.4°
3
87%
14:00
22°
1016.3 hPa 4.2 mm 16.4°
4
93% warningclass
17:00
21°
1015.4 hPa 5.5 mm 17.8°
4
77% warningclass
20:00
19°
1015.3 hPa 5.7 mm 18.1°
3
90% warningclass
23:00
18°
1015.9 hPa 56.6 mm 17.2°
3
92%
 05:05     21:08    Daglengte: 16:03 Zondag 23 Jun
02:00
17°
1016.2 hPa 58.1 mm 16.9°
2
92%
05:00
18°
1016.8 hPa 59.5 mm 16.7°
2
92%
08:00
18°
1017.4 hPa 61.3 mm 16.5°
2
92%
11:00
19°
1018.1 hPa 64.4 mm 17.2°
2
91%
14:00
21°
1018.8 hPa 64.6 mm 17.9°
3
90%
17:00
20°
1019.5 hPa 65.2 mm 18.0°
2
87%
20:00
20°
1020.3 hPa 65.5 mm 18.1°
1
85%
23:00
18°
1021.2 hPa 65.5 mm 16.7°
1
70%
 05:06     21:08    Daglengte: 16:02 Maandag 24 Jun
02:00
16°
1021.8 hPa 65.5 mm 15.4°
1
55%
05:00
17°
1022.4 hPa 65.5 mm 14.9°
1
66%
08:00
18°
1023.0 hPa 65.5 mm 14.6°
2
76%
11:00
22°
1022.8 hPa 65.5 mm 15.0°
2
75%
14:00
25°
1022.5 hPa 65.5 mm 14.7°
3
74%
17:00
24°
1022.3 hPa 65.6 mm 16.4°
3
51%
20:00
23°
1022.2 hPa 65.6 mm 17.7°
2
28%
23:00
20°
1023.4 hPa 65.6 mm 16.2°
2
19%
 05:06     21:08    Daglengte: 16:02 Dinsdag 25 Jun
02:00
17°
1024.5 hPa 65.6 mm 14.6°
2
10%
05:00
18°
1024.7 hPa 65.6 mm 14.8°
2
28%
08:00
20°
1024.9 hPa 65.6 mm 15.2°
3
45%
11:00
23°
1024.2 hPa 65.6 mm 15.9°
4
23%
14:00
27°
1023.5 hPa 65.6 mm 15.9°
4
0%
17:00
26°
1023.0 hPa 65.6 mm 16.8°
4
0%
20:00
25°
1022.7 hPa 65.6 mm 17.6°
4
0%
23:00
23°
1023.3 hPa 65.6 mm 17.4°
4
0%
 05:07     21:08    Daglengte: 16:01 Woensdag 26 Jun
02:00
20°
1023.7 hPa 65.6 mm 17.2°
4
0%
05:00
21°
1023.3 hPa 65.6 mm 17.1°
4
0%
08:00
22°
1022.9 hPa 65.6 mm 17.1°
4
0%
11:00
26°
1021.9 hPa 65.6 mm 19.0°
4
0%
14:00
30°
1020.9 hPa 65.6 mm 20.4°
5
0%
17:00
29°
1020.1 hPa   20.2°
5
0%
20:00
27°
1019.5 hPa 131.3 mm 19.8°
5
0%
 05:07     21:08    Daglengte: 16:01 Donderdag 27 Jun
02:00
21°
1020.2 hPa 131.3 mm 18.3°
1
0%
08:00
22°
1019.9 hPa 131.3 mm 18.9°
0
0%
14:00
31°
1018.0 hPa 131.3 mm 20.9°
1
0%
20:00
29°
1016.4 hPa 131.3 mm 20.1°
1
0%
 05:08     21:08    Daglengte: 16:00 Vrijdag 28 Jun
02:00
21°
1017.4 hPa 131.3 mm 18.0°
2
0%
08:00
24°
1017.3 hPa 131.3 mm 18.7°
1
0%
14:00
34°
1015.1 hPa 131.3 mm 18.3°
2
0%
20:00
31°
1013.2 hPa 134.4 mm 22.7°
2
0%
 05:08     21:08    Daglengte: 16:00 Zaterdag 29 Jun
02:00
22°
1013.8 hPa 139.0 mm 18.9°
1
0%
08:00
22°
1014.7 hPa 140.7 mm 20.3°
3
1%
14:00
30°
1014.8 hPa 0.4 mm 17.7°
2
15%
20:00
26°
1014.7 hPa 0.9 mm 19.5°
1
24%
 05:09     21:08    Daglengte: 15:59 Zondag 30 Jun
02:00
18°
1016.1 hPa 0.3 mm 15.4°
1
24%
08:00
21°
1016.2 hPa 0.3 mm 17.0°
0
23%
14:00
29°
1014.5 hPa 0.3 mm 17.1°
1
23%
20:00
25°
1014.4 hPa 0.8 mm 18.8°
1
24%
 05:09     21:07    Daglengte: 15:58 Maandag 01 Jul
02:00
17°
1015.6 hPa 1.4 mm 14.9°
1
37%
08:00
21°
1015.6 hPa 1.1 mm 16.6°
1
32%
14:00
29°
1014.0 hPa 0.3 mm 16.2°
1
28%
20:00
24°
1013.9 hPa 1.1 mm 18.5°
1
30%
 05:10     21:07    Daglengte: 15:57 Dinsdag 02 Jul
02:00
16°
1015.4 hPa 0.9 mm 14.7°
1
47%
08:00
20°
1015.9 hPa 0.5 mm 16.0°
1
33%
14:00
27°
1014.3 hPa 0.8 mm 16.3°
1
23%
20:00
23°
1014.1 hPa 0.8 mm 18.0°
1
32%
 05:11     21:07    Daglengte: 15:56 Woensdag 03 Jul
02:00
16°
1015.4 hPa 2.4 mm 14.2°
1
41%
08:00
19°
1015.6 hPa 0.8 mm 16.1°
1
29%
14:00
27°
1013.8 hPa 0.4 mm 15.9°
1
29%
20:00
23°
1013.9 hPa 1.0 mm 18.5°
1
36%
 05:11     21:06    Daglengte: 15:55 Donderdag 04 Jul
02:00
16°
1015.7 hPa 2.1 mm 14.2°
1
44%
08:00
19°
1016.6 hPa 1.0 mm 15.6°
1
40%
14:00
26°
1015.6 hPa 0.4 mm 15.8°
1
34%
  CAPE Lifted Index Hail Supercell Tornado SRH 3km CL BTM PRES CL TOP PRES Swiss DWD icon SMHI TS
 05:05     21:07    Daglengte: 16:02 Vandaag
20:00 0 J/kg -0.9 K 0 % 0 % 0 % 0 m²/s² 0 0 1.74 3
21:00 0 J/kg -0.8 K 0 % 0 % 0 % 0 m²/s² 0 0 1.75 3
22:00 0 J/kg -0.5 K 0 % 0 % 0 % 0 m²/s² 0 0 1.63 3
23:00 0 J/kg -0.7 K 0 % 0 % 0 % 0 m²/s² 0 0 1.4 2
 05:05     21:07    Daglengte: 16:02 Morgen
00:00 0 J/kg -0.4 K 0 % 0 % 0 % 0 m²/s² 0 0 2.96 3
01:00 0 J/kg 0.0 K 0 % 0 % 0 % 0 m²/s² 0 0 4.05 3
02:00 0 J/kg 0.0 K 0 % 0 % 0 % 0 m²/s² 0 0 4.14 1
03:00 0 J/kg -0.4 K 0 % 0 % 0 % 0 m²/s² 0 0 3.53 0
04:00 0 J/kg -0.7 K 0 % 0 % 0 % 0 m²/s² 0 0 3.14 0
05:00 0 J/kg -0.2 K 0 % 0 % 0 % 0 m²/s² 0 0 3.55 45
06:00 0 J/kg -0.4 K 0 % 0 % 0 % 0 m²/s² 0 0 2.78 45
07:00 0 J/kg -0.6 K 0 % 0 % 0 % 0 m²/s² 0 0 2.4 0
08:00 0 J/kg -1.0 K 0 % 0 % 0 % 0 m²/s² 0 0 1.61 1
09:00 1 J/kg -1.1 K 0 % 0 % 0 % 0 m²/s² 0 0 1.45 2
10:00 264 J/kg -1.7 K 0 % 0 % 0 % 0 m²/s² 0 0 1.09 2
11:00 778 J/kg -3.3 K 0 % 0 % 0 % 0 m²/s² 0 0 -0.69 0
12:00 1136 J/kg -4.4 K 0 % 0 % 0 % 0 m²/s² 0 0 -1.79 0
13:00 1365 J/kg -4.8 K 0 % 0 % 0 % 0 m²/s² 0 0 -2.19 1
14:00 1389 J/kg -4.9 K 0 % 0 % 0 % 0 m²/s² 0 0 -2.2 2
15:00 1280 J/kg -4.5 K 0 % 0 % 0 % 0 m²/s² 0 0 -2.16 0
16:00 1271 J/kg -4.7 K 0 % 0 % 0 % 0 m²/s² 0 0 -3.02 0
17:00 1172 J/kg -4.8 K 0 % 0 % 0 % 0 m²/s² 0 0 -3.24 3
18:00 127 J/kg -4.6 K 0 % 0 % 0 % 0 m²/s² 0 0 -3.16 80
19:00 0 J/kg -3.4 K 0 % 0 % 0 % 0 m²/s² 0 0 -2.53 80
20:00 5 J/kg -1.1 K 0 % 0 % 0 % 0 m²/s² 0 0 0.34 80
21:00 0 J/kg 0.2 K 0 % 0 % 0 % 0 m²/s² 0 0 1.22 3
22:00 44 J/kg 1.6 K 0 % 0 % 0 % 0 m²/s² 0 0 1.87 3
23:00 3 J/kg 3.1 K 0 % 0 % 0 % 0 m²/s² 0 0 3.22 3
 05:05     21:07    Daglengte: 16:02 Vrijdag 21 Jun
00:00 0 J/kg 2.6 K 0 % 0 % 0 % 0 m²/s² 0 0 3.47 3
01:00 0 J/kg 2.7 K 0 % 0 % 0 % 0 m²/s² 0 0 3.72 95
02:00 0 J/kg 2.8 K 0 % 0 % 0 % 0 m²/s² 0 0 4.54 80
03:00 0 J/kg 1.9 K 0 % 0 % 0 % 0 m²/s² 0 0 3.82 80
04:00 0 J/kg 1.7 K 0 % 0 % 0 % 0 m²/s² 0 0 3.83 80
05:00 0 J/kg 1.6 K 0 % 0 % 0 % 0 m²/s² 0 0 4.09 2
06:00 0 J/kg 0.8 K 0 % 0 % 0 % 0 m²/s² 0 0 3.83 2
07:00 0 J/kg 0.1 K 0 % 0 % 0 % 0 m²/s² 0 0 3.13 2
08:00 0 J/kg -0.1 K 0 % 0 % 0 % 0 m²/s² 0 0 2.69 2
09:00 3 J/kg -0.9 K 0 % 0 % 0 % 0 m²/s² 0 0 1.56 80
10:00 7 J/kg -1.2 K 0 % 0 % 0 % 0 m²/s² 0 0 1.05 80
11:00 396 J/kg -2.0 K 0 % 0 % 0 % 0 m²/s² 0 0 0.04 3
12:00 822 J/kg -3.2 K 0 % 0 % 0 % 0 m²/s² 0 0 -1.43 2
13:00 973 J/kg -3.5 K 0 % 0 % 0 % 0 m²/s² 0 0 -1.64 3
14:00 1241 J/kg -4.2 K 0 % 0 % 0 % 0 m²/s² 0 0 -2.46 3
15:00 1373 J/kg -4.1 K 0 % 0 % 0 % 0 m²/s² 0 0 -2.78 3
16:00 491 J/kg -3.4 K 0 % 0 % 0 % 0 m²/s² 0 0 -2.65 80
17:00 11 J/kg -2.8 K 0 % 0 % 0 % 0 m²/s² 0 0 -2.17 61
18:00 175 J/kg -1.3 K 0 % 0 % 0 % 0 m²/s² 0 0 -1.12 61
19:00 286 J/kg -1.1 K 0 % 0 % 0 % 0 m²/s² 0 0 -0.71 3
20:00 350 J/kg -1.7 K 0 % 0 % 0 % 0 m²/s² 0 0 -1.07 80
21:00 345 J/kg -0.8 K 0 % 0 % 0 % 0 m²/s² 0 0 -0.5 3
22:00 167 J/kg -0.5 K 0 % 0 % 0 % 0 m²/s² 0 0 -0.05 80
23:00 96 J/kg 0.0 K 0 % 0 % 0 % 0 m²/s² 0 0 0.45 3
 05:05     21:08    Daglengte: 16:03 Zaterdag 22 Jun
00:00 8 J/kg 0.2 K 0 % 0 % 0 % 0 m²/s² 0 0 0.92 80
01:00 0 J/kg 0.2 K 0 % 0 % 0 % 0 m²/s² 0 0 0.92 80
02:00 0 J/kg 0.8 K 0 % 0 % 0 % 0 m²/s² 0 0 1.61 80
03:00 0 J/kg 0.5 K 0 % 0 % 0 % 0 m²/s² 0 0 1.4 80
04:00 0 J/kg 0.3 K 0 % 0 % 0 % 0 m²/s² 0 0 1.35 95
05:00 1 J/kg 0.3 K 0 % 0 % 0 % 0 m²/s² 0 0 1.17 80
06:00 0 J/kg -0.2 K 0 % 0 % 0 % 0 m²/s² 0 0 0.55 61
07:00 0 J/kg -0.7 K 0 % 0 % 0 % 0 m²/s² 0 0 0.2 61
08:00 0 J/kg -0.5 K 0 % 0 % 0 % 0 m²/s² 0 0 0.37 61
09:00 274 J/kg -1.5 K 0 % 0 % 0 % 0 m²/s² 0 0 -0.45 61
10:00 544 J/kg -2.2 K 0 % 0 % 0 % 0 m²/s² 0 0 -1.15 61
11:00 820 J/kg -3.0 K 0 % 0 % 0 % 0 m²/s² 0 0 -1.77 3
12:00 1088 J/kg -4.1 K 0 % 0 % 0 % 0 m²/s² 0 0 -3.05 3
13:00 1100 J/kg -3.8 K 0 % 0 % 0 % 0 m²/s² 0 0 -2.42 3
14:00 1090 J/kg -4.6 K 0 % 0 % 0 % 0 m²/s² 0 0 -3.16 3
15:00 1139 J/kg -4.6 K 0 % 0 % 0 % 0 m²/s² 0 0 -4.03 95
16:00 1184 J/kg -4.4 K 0 % 0 % 0 % 0 m²/s² 0 0 -3.44 80
17:00 1055 J/kg -3.5 K 0 % 0 % 0 % 0 m²/s² 0 0 -2.27 95
18:00 854 J/kg -3.2 K 0 % 0 % 0 % 0 m²/s² 0 0 -1.82 80
19:00 700 J/kg -2.4 K 0 % 0 % 0 % 0 m²/s² 0 0 -1.44 80
Temp Baro Wind Neerslag
  EWN Forecast EWN WRFDA DWD ICON FMI HIRLAM MET Norway GFS
 05:05     21:07    Daglengte: 16:02 Vandaag
20:00 25.9° 1010.1 hPa 1.4 m/s 0.0 mm 21.8° 1010.5 hPa 1.6 m/s 0.3 mm 25.9° 1009.4 hPa 0.4 m/s -2.0 mm 27.9° 1010.5 hPa 1.1 m/s 0.0 mm 25.1° 1010.3 hPa 1.5 m/s 0.0 mm 19.1° 1011.7 hPa 2.1 m/s
23:00 20.7° 1011.0 hPa 1.4 m/s 0.0 mm 19.6° 1011.0 hPa 1.8 m/s 0.8 mm 20.1° 1010.8 hPa 0.9 m/s 0.0 mm 22.9° 1011.5 hPa 1.1 m/s 0.0 mm 20.3° 1011.2 hPa 1.8 m/s 0.0 mm 15.5° 1013.0 hPa 1.1 m/s
 05:05     21:07    Daglengte: 16:02 Morgen
02:00 17.8° 1010.9 hPa 1.0 m/s 0.0 mm 15.4° 1010.9 hPa 0.9 m/s 0.8 mm 15.8° 1011.2 hPa 1.0 m/s 0.0 mm 19.6° 1011.6 hPa 0.8 m/s 0.0 mm 17.7° 1010.7 hPa 1.6 m/s 0.0 mm 14.3° 1013.5 hPa 0.4 m/s
05:00 16.0° 1011.5 hPa 0.7 m/s 0.0 mm 13.9° 1010.7 hPa 0.9 m/s 0.8 mm 13.9° 1011.7 hPa 1.0 m/s 0.0 mm 17.0° 1012.3 hPa 0.7 m/s 0.0 mm 16.0° 1011.6 hPa 0.7 m/s 0.0 mm 13.3° 1013.1 hPa 0.5 m/s
08:00 20.5° 1011.9 hPa 0.5 m/s 0.0 mm 19.5° 1011.7 hPa 0.8 m/s 0.8 mm 19.1° 1011.9 hPa 0.5 m/s 0.0 mm 20.5° 1012.1 hPa 0.9 m/s 0.0 mm 20.8° 1012.1 hPa 0.3 m/s 0.0 mm 18.3° 1013.6 hPa 0.5 m/s
11:00 26.5° 1011.6 hPa 2.1 m/s 0.0 mm 24.6° 1011.5 hPa 2.0 m/s 0.8 mm 26.4° 1011.9 hPa 3.3 m/s 0.0 mm 26.7° 1011.5 hPa 1.6 m/s 0.0 mm 26.6° 1011.8 hPa 2.4 m/s 0.0 mm 23.3° 1012.7 hPa 2.5 m/s
14:00 28.5° 1010.7 hPa 2.1 m/s 0.0 mm 27.7° 1010.4 hPa 1.9 m/s 0.8 mm 28.6° 1011.1 hPa 3.6 m/s 0.1 mm 29.6° 1010.0 hPa 1.0 m/s 0.0 mm 26.5° 1011.5 hPa 2.0 m/s 0.5 mm 25.7° 1011.8 hPa 1.7 m/s
17:00 27.5° 1010.3 hPa 2.3 m/s 0.0 mm 28.3° 1009.4 hPa 0.6 m/s 0.8 mm 26.4° 1011.2 hPa 4.6 m/s 0.2 mm 30.6° 1008.7 hPa 2.3 m/s 0.0 mm 25.5° 1011.9 hPa 0.9 m/s 0.0 mm 21.2° 1012.0 hPa 7.8 m/s
20:00 22.8° 1012.4 hPa 3.0 m/s 1.9 mm 19.1° 1012.6 hPa 9.5 m/s 2.5 mm 20.2° 1014.7 hPa 2.6 m/s 1.6 mm 27.9° 1009.9 hPa 1.6 m/s 0.0 mm 22.4° 1013.0 hPa 2.8 m/s 0.0 mm 18.2° 1014.1 hPa 2.4 m/s
23:00 19.3° 1014.4 hPa 3.0 m/s 2.8 mm 17.2° 1014.4 hPa 2.7 m/s 4.8 mm 18.1° 1015.3 hPa 2.3 m/s 0.1 mm 22.6° 1012.0 hPa 3.5 m/s 0.0 mm 18.7° 1015.7 hPa 3.8 m/s 3.3 mm 17.2° 1016.3 hPa 1.7 m/s
 05:05     21:07    Daglengte: 16:02 Vrijdag 21 Jun
02:00 18.0° 1014.8 hPa 2.6 m/s 2.6 mm 14.0° 1014.1 hPa 1.9 m/s 5.5 mm 17.2° 1016.4 hPa 1.4 m/s 1.7 mm 20.6° 1012.8 hPa 4.5 m/s 0.0 mm 17.8° 1016.1 hPa 2.3 m/s 1.9 mm 15.1° 1016.8 hPa 1.5 m/s
05:00 17.4° 1015.4 hPa 1.9 m/s 2.8 mm 13.1° 1014.6 hPa 1.4 m/s 5.5 mm 16.5° 1016.6 hPa 1.2 m/s 1.2 mm 19.5° 1013.9 hPa 5.9 m/s 0.0 mm 17.3° 1016.6 hPa 0.8 m/s 0.9 mm 14.0° 1016.9 hPa 0.9 m/s
08:00 19.0° 1016.3 hPa 2.4 m/s 0.9 mm 18.1° 1015.2 hPa 1.3 m/s 5.5 mm 18.9° 1017.4 hPa 2.0 m/s 0.2 mm 19.9° 1015.5 hPa 5.6 m/s 0.0 mm 19.2° 1017.2 hPa 0.9 m/s 0.0 mm 17.8° 1017.4 hPa 0.9 m/s
11:00 22.2° 1016.8 hPa 2.9 m/s 2.5 mm 22.8° 1015.4 hPa 1.1 m/s 5.5 mm 21.1° 1017.4 hPa 2.6 m/s 0.9 mm 22.7° 1016.1 hPa 4.5 m/s 0.0 mm 23.0° 1017.3 hPa 1.2 m/s 0.0 mm 21.9° 1017.2 hPa 0.9 m/s
14:00 24.4° 1015.5 hPa 2.7 m/s 0.0 mm 25.6° 1013.7 hPa 0.9 m/s 5.5 mm 23.4° 1016.5 hPa 2.8 m/s 0.0 mm 24.5° 1015.0 hPa 3.5 m/s 0.0 mm 25.6° 1015.4 hPa 1.2 m/s 0.0 mm 24.4° 1016.0 hPa 0.9 m/s
17:00 23.1° 1015.3 hPa 3.6 m/s 0.7 mm 20.0° 1015.0 hPa 4.6 m/s 6.8 mm 21.4° 1016.7 hPa 4.0 m/s 0.4 mm 26.1° 1014.8 hPa 1.5 m/s 0.0 mm 25.1° 1015.8 hPa 1.5 m/s
20:00 21.6° 1016.1 hPa 1.6 m/s 1.3 mm 19.7° 1015.4 hPa 1.5 m/s 8.4 mm 20.3° 1017.0 hPa 1.6 m/s 1.0 mm 23.4° 1016.0 hPa 2.0 m/s 0.0 mm 21.6° 1016.4 hPa 1.9 m/s
23:00 19.1° 1017.9 hPa 2.4 m/s 1.4 mm 18.1° 1016.6 hPa 2.2 m/s 8.6 mm 18.1° 1018.5 hPa 0.9 m/s 0.3 mm 19.6° 1017.9 hPa 2.8 m/s 0.6 mm 17.5° 1018.0 hPa 1.1 m/s
 05:05     21:08    Daglengte: 16:03 Zaterdag 22 Jun
02:00 17.7° 1018.2 hPa 1.8 m/s 2.7 mm 14.6° 1016.1 hPa 1.1 m/s 8.7 mm 17.0° 1018.7 hPa 0.6 m/s 1.1 mm 18.2° 1018.2 hPa 2.0 m/s 1.2 mm 16.9° 1017.8 hPa 0.2 m/s
05:00 16.8° 1018.3 hPa 1.0 m/s 5.2 mm 14.5° 1014.9 hPa 1.0 m/s 8.7 mm 16.6° 1018.5 hPa 0.4 m/s 5.6 mm 17.3° 1018.6 hPa 0.8 m/s 3.0 mm 16.3° 1016.9 hPa 0.5 m/s
08:00 17.4° 1018.6 hPa 1.5 m/s 3.7 mm 17.2° 1015.2 hPa 1.4 m/s 8.7 mm 17.2° 1019.2 hPa 0.8 m/s 0.8 mm 18.1° 1018.7 hPa 1.4 m/s 4.1 mm 17.4° 1017.1 hPa 1.5 m/s
11:00 19.8° 1017.5 hPa 2.8 m/s 3.6 mm 22.6° 1013.8 hPa 1.3 m/s 8.7 mm 19.6° 1018.4 hPa 3.3 m/s 0.3 mm 19.9° 1017.5 hPa 3.0 m/s 20.5° 1016.0 hPa 4.4 m/s
14:00 21.6° 1016.3 hPa 4.4 m/s 4.2 mm 24.4° 1012.1 hPa 2.0 m/s 8.7 mm 22.4° 1017.3 hPa 5.6 m/s 0.2 mm 21.7° 1016.2 hPa 4.7 m/s 22.4° 1014.7 hPa 5.9 m/s
17:00 20.7° 1015.4 hPa 3.8 m/s 5.5 mm 21.3° 1011.6 hPa 2.6 m/s 10.4 mm 21.0° 1016.2 hPa 5.3 m/s 3.0 mm 20.4° 1015.7 hPa 3.7 m/s 22.1° 1013.9 hPa 3.7 m/s
20:00 19.3° 1015.3 hPa 2.8 m/s 5.7 mm 19.5° 1012.4 hPa 2.8 m/s 14.9 mm 19.9° 1017.4 hPa 3.7 m/s 1.2 mm 19.0° 1015.2 hPa 2.6 m/s 18.6° 1014.4 hPa 3.3 m/s
23:00 18.0° 1015.9 hPa 2.5 m/s 56.6 mm 18.0° 1015.9 hPa 2.5 m/s 17.7° 1015.9 hPa 2.2 m/s 56.6 mm
 05:05     21:08    Daglengte: 16:03 Zondag 23 Jun
02:00 17.4° 1016.2 hPa 2.4 m/s 58.1 mm 17.5° 1016.2 hPa 2.5 m/s 16.8° 1016.4 hPa 1.6 m/s 58.1 mm
05:00 17.5° 1016.8 hPa 2.1 m/s 59.5 mm 17.6° 1016.8 hPa 2.1 m/s 16.9° 1017.0 hPa 1.7 m/s 59.5 mm
08:00 17.6° 1017.4 hPa 1.8 m/s 61.3 mm 17.7° 1017.3 hPa 1.7 m/s 16.4° 1018.3 hPa 2.6 m/s 61.3 mm
11:00 19.1° 1018.1 hPa 2.2 m/s 64.4 mm 19.2° 1018.0 hPa 2.1 m/s 17.6° 1019.6 hPa 2.3 m/s 64.4 mm
14:00 20.6° 1018.8 hPa 2.5 m/s 64.6 mm 20.7° 1018.7 hPa 2.6 m/s 19.9° 1019.5 hPa 1.7 m/s 64.6 mm
17:00 20.3° 1019.5 hPa 1.7 m/s 65.2 mm 20.3° 1019.5 hPa 1.5 m/s 20.5° 1019.3 hPa 3.8 m/s 65.2 mm
20:00 19.9° 1020.3 hPa 0.5 m/s 65.5 mm 19.9° 1020.3 hPa 0.4 m/s 19.8° 1020.9 hPa 1.6 m/s 65.5 mm
23:00 17.9° 1021.2 hPa 0.8 m/s 65.5 mm 18.1° 1021.0 hPa 0.7 m/s 15.3° 1023.0 hPa 1.6 m/s 65.5 mm
 05:06     21:08    Daglengte: 16:02 Maandag 24 Jun
02:00 16.2° 1021.8 hPa 1.0 m/s 65.5 mm 16.4° 1021.7 hPa 1.0 m/s 14.0° 1023.0 hPa 0.7 m/s 65.5 mm
05:00 17.1° 1022.4 hPa 1.2 m/s 65.5 mm 17.5° 1022.4 hPa 1.2 m/s 13.0° 1023.1 hPa 1.1 m/s 65.5 mm
08:00 18.5° 1023.0 hPa 1.5 m/s 65.5 mm 18.6° 1023.0 hPa 1.5 m/s 17.1° 1023.6 hPa 2.0 m/s 65.5 mm
11:00 21.7° 1022.8 hPa 2.4 m/s 65.5 mm 21.8° 1022.8 hPa 2.5 m/s 20.9° 1023.3 hPa 2.4 m/s 65.5 mm
14:00 24.8° 1022.5 hPa 3.4 m/s 65.5 mm 24.9° 1022.5 hPa 3.4 m/s 24.0° 1022.4 hPa 3.6 m/s 65.5 mm
17:00 24.2° 1022.3 hPa 2.5 m/s 65.6 mm 24.1° 1022.3 hPa 2.5 m/s 24.8° 1022.1 hPa 3.3 m/s 65.6 mm
20:00 23.2° 1022.2 hPa 1.5 m/s 65.6 mm 23.3° 1022.1 hPa 1.5 m/s 22.2° 1023.0 hPa 2.0 m/s 65.6 mm
23:00 20.0° 1023.4 hPa 1.9 m/s 65.6 mm 20.1° 1023.2 hPa 1.9 m/s 18.3° 1025.1 hPa 2.2 m/s 65.6 mm
 05:06     21:08    Daglengte: 16:02 Dinsdag 25 Jun
02:00 17.0° 1024.5 hPa 2.2 m/s 65.6 mm 17.0° 1024.4 hPa 2.2 m/s 16.9° 1025.1 hPa 1.8 m/s 65.6 mm
05:00 18.1° 1024.7 hPa 2.5 m/s 65.6 mm 18.3° 1024.7 hPa 2.5 m/s 15.8° 1024.5 hPa 1.9 m/s 65.6 mm
08:00 19.6° 1024.9 hPa 2.9 m/s 65.6 mm 19.6° 1025.0 hPa 2.9 m/s 19.5° 1024.3 hPa 3.1 m/s 65.6 mm
11:00 23.2° 1024.2 hPa 3.7 m/s 65.6 mm 23.1° 1024.3 hPa 3.7 m/s 23.2° 1023.5 hPa 3.9 m/s 65.6 mm
14:00 26.7° 1023.5 hPa 4.5 m/s 65.6 mm 26.7° 1023.6 hPa 4.5 m/s 26.2° 1022.5 hPa 3.9 m/s 65.6 mm
17:00 25.9° 1023.0 hPa 4.2 m/s 65.6 mm 25.8° 1023.2 hPa 4.3 m/s 27.4° 1021.6 hPa 2.9 m/s 65.6 mm
20:00 24.9° 1022.7 hPa 4.1 m/s 65.6 mm 24.9° 1022.7 hPa 4.2 m/s 24.6° 1022.3 hPa 2.6 m/s 65.6 mm
23:00 22.6° 1023.3 hPa 4.1 m/s 65.6 mm 22.8° 1023.2 hPa 4.2 m/s 20.5° 1024.1 hPa 1.9 m/s 65.6 mm
 05:07     21:08    Daglengte: 16:01 Woensdag 26 Jun
02:00 20.5° 1023.7 hPa 4.1 m/s 65.6 mm 20.6° 1023.7 hPa 4.3 m/s 18.9° 1023.5 hPa 1.4 m/s 65.6 mm
05:00 20.9° 1023.3 hPa 3.8 m/s 65.6 mm 21.1° 1023.3 hPa 4.0 m/s 18.3° 1023.2 hPa 1.2 m/s 65.6 mm
08:00 21.7° 1022.9 hPa 3.6 m/s 65.6 mm 21.7° 1022.9 hPa 3.7 m/s 21.3° 1023.0 hPa 2.0 m/s 65.6 mm
11:00 26.1° 1021.9 hPa 4.3 m/s 65.6 mm 26.1° 1021.9 hPa 4.5 m/s 25.1° 1022.2 hPa 2.4 m/s 65.6 mm
14:00 30.4° 1020.9 hPa 5.0 m/s 65.6 mm 30.6° 1020.9 hPa 5.2 m/s 28.0° 1020.8 hPa 2.3 m/s 65.6 mm
17:00 28.8° 1020.1 hPa 4.9 m/s 65.6 mm 28.8° 1020.2 hPa 5.2 m/s 28.8° 1019.5 hPa 1.9 m/s 65.6 mm
20:00 26.9° 1019.5 hPa 4.9 m/s 65.6 mm 27.0° 1019.5 hPa 5.1 m/s 25.3° 1019.7 hPa 2.5 m/s 65.6 mm
 05:07     21:08    Daglengte: 16:01 Donderdag 27 Jun
02:00 20.8° 1020.2 hPa 0.9 m/s 65.6 mm 21.0° 1020.2 hPa 0.9 m/s 18.7° 1020.0 hPa 0.5 m/s 65.6 mm
08:00 21.8° 1019.9 hPa 0.2 m/s 65.6 mm 21.8° 1020.0 hPa 0.2 m/s 21.3° 1018.5 hPa 0.1 m/s 65.6 mm
14:00 30.6° 1018.0 hPa 0.8 m/s 65.6 mm 30.7° 1018.2 hPa 0.8 m/s 29.0° 1016.1 hPa 0.7 m/s 65.6 mm
20:00 28.6° 1016.4 hPa 1.4 m/s 65.6 mm 28.8° 1016.5 hPa 1.4 m/s 26.3° 1014.9 hPa 1.6 m/s 65.6 mm
 05:08     21:08    Daglengte: 16:00 Vrijdag 28 Jun
02:00 21.5° 1017.4 hPa 2.3 m/s 65.6 mm 21.6° 1017.5 hPa 2.4 m/s 20.1° 1016.1 hPa 0.7 m/s 65.6 mm
08:00 24.3° 1017.3 hPa 1.0 m/s 65.6 mm 24.4° 1017.5 hPa 1.0 m/s 23.3° 1014.6 hPa 1.5 m/s 65.6 mm
14:00 33.6° 1015.1 hPa 1.6 m/s 65.6 mm 33.9° 1015.4 hPa 1.4 m/s 30.6° 1012.2 hPa 3.6 m/s 65.6 mm
20:00 31.3° 1013.2 hPa 1.6 m/s 68.1 mm 31.9° 1013.2 hPa 1.4 m/s 24.4° 1013.1 hPa 3.2 m/s 68.1 mm
 05:08     21:08    Daglengte: 16:00 Zaterdag 29 Jun
02:00 21.6° 1013.8 hPa 1.3 m/s 69.5 mm 21.7° 1013.8 hPa 1.2 m/s 20.5° 1014.3 hPa 2.5 m/s 69.5 mm
08:00 21.6° 1014.7 hPa 3.2 m/s 70.7 mm 21.6° 1014.7 hPa 3.2 m/s 70.7 mm
14:00 30.3° 1014.8 hPa 1.5 m/s 0.4 mm
20:00 25.5° 1014.7 hPa 0.8 m/s 0.9 mm
 05:09     21:08    Daglengte: 15:59 Zondag 30 Jun
02:00 17.9° 1016.1 hPa 0.8 m/s 0.3 mm
08:00 21.1° 1016.2 hPa 0.5 m/s 0.3 mm
14:00 29.1° 1014.5 hPa 1.2 m/s 0.3 mm
20:00 24.8° 1014.4 hPa 0.7 m/s 0.8 mm
 05:09     21:07    Daglengte: 15:58 Maandag 01 Jul
02:00 17.4° 1015.6 hPa 1.0 m/s 1.4 mm
08:00 20.7° 1015.6 hPa 0.8 m/s 1.1 mm
14:00 28.6° 1014.0 hPa 1.5 m/s 0.3 mm
20:00 23.7° 1013.9 hPa 0.9 m/s 1.1 mm
 05:10     21:07    Daglengte: 15:57 Dinsdag 02 Jul
02:00 16.5° 1015.4 hPa 1.1 m/s 0.9 mm
08:00 19.7° 1015.9 hPa 1.1 m/s 0.5 mm
14:00 26.6° 1014.3 hPa 1.4 m/s 0.8 mm
20:00 23.4° 1014.1 hPa 0.8 m/s 0.8 mm
 05:11     21:07    Daglengte: 15:56 Woensdag 03 Jul
02:00 15.9° 1015.4 hPa 0.9 m/s 2.4 mm
08:00 19.4° 1015.6 hPa 0.7 m/s 0.8 mm
14:00 27.2° 1013.8 hPa 1.0 m/s 0.4 mm
20:00 23.3° 1013.9 hPa 0.6 m/s 1.0 mm
 05:11     21:06    Daglengte: 15:55 Donderdag 04 Jul
02:00 15.9° 1015.7 hPa 0.8 m/s 2.1 mm
08:00 18.9° 1016.6 hPa 0.8 m/s 1.0 mm
14:00 26.4° 1015.6 hPa 1.0 m/s 0.4 mm
FMI Hirlam - 7.5 km EWN WRFDA - 12 km DWD ICON - 7 km GFS - 25 km Basiskaart






























































Updatetijd (Europe/Amsterdam) Resolutie Lengte Stap
FMI Hirlam 19:00, 01:00, 07:00, 13:00 7.5 km 49h 1h
EWN WRFDA 16:00, 22:00, 04:00, 10:00 12 km 73h 1h
DWD ICON 17:45, 23:45, 05:45, 11:45 7 km 75h 1h
GFS 14:30, 20:30, 02:30, 08:30 25 km 237h 3h
30+ mm
25-30 mm
20-25 mm
15-20 mm
10-15 mm
6-10 mm
4-6 mm
2-4 mm
1-2 mm
0.5-1 mm
0.2-0.5 mm
0.1-0.2 mm
30+ mm
25-30 mm
20-25 mm
15-20 mm
10-15 mm
6-10 mm
4-6 mm
2-4 mm
1-2 mm
0.5-1 mm
0.2-0.5 mm
0.1-0.2 mm
Sneeuwval
Natte sneeuw
Hagel
Vorst
30+ mm
25-30 mm
20-25 mm
15-20 mm
10-15 mm
6-10 mm
4-6 mm
2-4 mm
1-2 mm
0.5-1 mm
0.2-0.5 mm
0.1-0.2 mm
Sneeuwval
Natte sneeuw
Hagel
Vorst
Onweer
50 mm
40 mm
30 mm
26 mm
22 mm
18 mm
14 mm
10 mm
9 mm
8 mm
7 mm
6 mm
5 mm
4.5 mm
4 mm
3.5 mm
3 mm
2.5 mm
2 mm
1.5 mm
1 mm
0.8 mm
0.6 mm
0.4 mm
0.2 mm
0.05 mm
35°
30°
25°
20°
15°
10°
-5°
-10°
-15°
-20°
-25°
-30°
-35°